ロニオス彗星

159P/LONEOS (2018)

English version
Home page
Updated on January 23, 2020

---------------------------------------------------------------------

・ プロフィール

・ 写真集

・ 軌道要素

Epoch 2018 June 11.0 TT = JDT 2458280.5
T 2018 May 22.80010 TT                                  Williams
q   3.6252071            (2000.0)            P               Q
n   0.06943706     Peri.    4.76224     +0.50884840     -0.79664189
a   5.8623960      Node    55.02424     +0.77608907     +0.26053585
e   0.3816168      Incl.   23.46271     +0.37250377     +0.54541981
P  14.2
From 669 observations 1989 Dec. 17-2019 Oct. 31, mean residual 0".5.

・ 光度変化

        m1 = 3.5 + 5 logΔ + 20 log r(t - 300)

---------------------------------------------------------------------

軌道要素はM.P.E.C. 2019-V116に掲載されたものです。
光度グラフはComet for Windowsで作成したものです。

---------------------------------------------------------------------

Copyright(C) Seiichi Yoshida (comet@aerith.net). All rights reserved.